Temperature
12 11 11 12 13 13 14 13 13 14 14 12 12 12 13 14 15 14 15 15 14 14 13 12 11 11 10 10 10 9 9 9 9 9 9 9 9 9 9 9 9 9 9 9
11 11 12 13 13 13 13 12 13 14 14 13 11 12 13 14 14 15 14 14 14 13 12 12 11 11 10 10 9 9 9 8 8 8 8 8 8 8 8 8 8 8 8 8
12 12 13 13 12 12 12 12 12 12 12 12 11 11 13 14 14 14 14 13 13 13 12 11 11 10 10 9 9 9 8 8 8 8 8 7 7 7 7 8 8 8 8 8
12 12 12 12 12 12 11 12 12 12 10 10 12 9 12 13 13 12 12 13 13 12 11 11 10 10 10 9 9 8 8 8 8 7 7 7 7 7 7 7 7 7 7 7
12 12 11 11 12 12 11 11 11 11 10 9 10 9 10 13 12 12 12 12 12 12 11 11 10 10 9 9 9 8 8 8 7 7 7 7 7 7 7 7 7 7 7 7
11 11 11 11 11 11 11 10 10 10 9 7 9 9 10 12 13 12 12 12 12 11 11 10 10 10 9 9 8 8 8 7 7 7 7 7 7 7 6 6 6 6 6 6
10 10 10 10 10 10 10 8 8 8 7 8 11 10 10 13 13 13 11 12 12 11 10 10 10 9 9 8 8 8 7 7 7 7 6 6 7 6 6 6 6 6 6 6
9 10 10 9 9 9 8 9 8 8 9 10 11 9 11 13 13 13 12 12 11 11 10 10 9 9 9 8 8 7 7 7 7 6 6 6 6 6 6 6 6 5 6 6
10 10 10 10 10 10 9 8 9 8 8 7 9 11 13 12 12 11 11 11 11 11 10 10 9 9 8 8 7 7 7 6 6 6 6 6 6 6 5 5 5 5 5 5
10 9 9 9 9 9 9 9 7 7 6 7 9 10 10 11 11 11 10 11 11 10 10 9 9 8 8 7 7 7 6 6 6 6 5 5 5 5 5 5 5 5 5 5
9 7 8 7 7 7 7 8 7 7 7 7 8 10 12 11 11 10 10 11 11 10 10 9 8 8 7 7 7 6 6 6 5 5 5 5 5 5 5 5 4 4 4 4
9 7 6 7 8 9 8 8 7 5 5 6 6 8 12 11 11 11 10 11 11 10 9 9 8 8 7 7 6 6 5 5 5 5 5 4 4 4 4 4 4 4 4 4
7 6 5 6 6 6 6 7 7 6 6 5 6 7 11 11 11 11 11 10 10 10 9 8 8 7 7 6 6 5 5 5 4 4 4 4 4 4 4 4 4 3 3 4
7 4 5 6 7 5 5 5 6 5 5 5 6 8 9 10 9 9 10 10 10 9 8 8 7 7 6 5 5 5 4 4 4 4 4 4 4 4 3 3 3 3 3 3
5 4 5 6 7 7 5 5 5 5 5 5 6 8 8 9 9 9 10 9 9 8 8 7 7 6 5 5 5 4 4 4 3 3 3 3 3 3 3 3 3 3 3 3
4 4 4 5 6 6 6 6 6 6 6 6 6 7 8 9 9 9 9 9 8 8 7 7 6 5 5 4 4 4 3 3 3 3 3 3 3 3 3 3 2 2 2 2
3 3 3 4 5 5 5 6 6 6 6 6 6 7 8 8 8 8 8 8 7 7 6 6 5 5 4 4 3 3 3 3 3 2 2 2 2 2 2 2 2 2 2 2
3 3 3 3 4 3 6 8 8 7 7 7 7 7 7 7 7 7 7 7 6 5 5 4 4 4 3 3 3 2 2 2 2 2 2 2 2 2 2 2 1 1 1 1
3 2 3 3 3 4 6 7 7 6 6 6 6 6 6 7 6 6 6 5 5 4 4 3 3 3 3 2 2 2 2 2 2 1 1 1 1 1 1 1 1 1 1 1
3 3 2 3 3 3 6 6 7 6 4 5 5 5 5 5 3 4 5 4 4 3 3 3 2 2 2 2 2 1 1 1 1 1 1 1 0 0 0 0 0 0 0 1
2 2 2 2 2 3 5 5 6 4 4 5 5 5 4 3 3 4 4 3 3 3 2 2 2 1 1 1 1 1 1 1 1 0 0 0 -0 -0 -0 -0 -0 -0 0 0
2 2 2 2 2 3 4 4 3 3 4 4 4 4 3 3 3 3 2 2 2 2 1 1 1 1 0 0 0 0 0 0 -0 -0 -0 -1 -1 -1 -1 -1 -0 -0 -0 -0
3 2 2 2 3 4 4 4 4 4 4 3 3 3 2 2 2 2 1 1 1 1 0 0 -0 -0 -0 -0 -0 -1 -1 -1 -1 -1 -1 -1 -1 -1 -1 -1 -1 -1 -1 -1
3 3 2 2 3 3 4 4 3 3 3 2 2 2 2 1 1 1 0 0 0 -0 -0 -1 -1 -1 -1 -1 -1 -1 -1 -2 -2 -2 -2 -2 -2 -2 -1 -1 -1 -1 -1 -1
2 1 1 1 2 2 3 2 2 2 2 2 1 1 1 0 0 -0 -0 -1 -1 -1 -1 -2 -2 -2 -2 -2 -2 -2 -2 -2 -2 -2 -2 -2 -2 -2 -2 -2 -2 -2 -1 -1
1 1 0 0 1 1 1 1 1 1 1 0 0 -0 -0 -1 -1 -1 -1 -2 -2 -2 -2 -2 -2 -2 -2 -2 -2 -2 -3 -3 -3 -3 -3 -3 -3 -3 -3 -2 -2 -1 -1 -1
Wind_Speed
6 5 6 6 7 6 6 6 8 5 0 2 9 14 14 11 9 9 8 7 6 5 4 4 4 4 3 3 2 1 1 2 2 2 2 2 3 3 3 3 4 4 5 5
5 8 6 4 3 5 6 8 8 6 1 4 10 15 15 12 9 7 5 4 4 4 4 4 3 3 2 2 2 2 2 2 3 2 2 3 3 3 4 4 4 5 5 5
8 1 2 4 4 5 7 7 6 6 8 7 8 10 7 3 4 3 2 2 3 4 4 4 4 3 2 1 1 2 2 3 4 3 3 3 3 3 3 4 4 5 5 5
7 5 3 5 6 5 5 2 4 5 5 5 2 6 6 4 6 6 5 5 4 4 4 3 3 2 2 2 2 2 3 4 4 4 4 4 4 5 5 4 5 5 6 6
5 5 5 6 5 5 1 3 4 5 6 6 5 6 8 5 6 6 6 5 5 5 4 4 3 3 3 3 3 3 4 5 5 5 5 6 6 5 5 5 6 6 6 6
5 1 3 3 1 2 1 1 5 4 2 5 7 7 7 3 5 6 5 5 5 5 4 3 3 3 2 2 2 3 5 6 5 5 6 7 7 7 6 6 6 6 5 5
7 7 5 2 3 3 3 1 1 1 3 7 4 5 7 1 4 5 6 5 4 4 3 2 2 2 2 3 3 4 6 6 6 6 6 7 8 8 8 7 7 6 5 5
6 6 11 7 5 4 6 4 4 4 4 2 1 6 6 3 4 5 4 4 4 2 2 2 2 2 3 3 4 5 6 7 6 6 7 7 8 6 6 7 7 7 6 6
5 3 6 7 4 4 5 5 1 1 3 4 6 6 4 5 5 4 3 2 3 2 2 2 2 2 3 4 4 5 5 6 6 6 7 8 7 7 7 7 7 6 6 6
2 3 5 5 3 4 4 2 3 4 4 5 7 7 4 5 5 4 3 3 3 3 2 2 2 2 3 4 4 4 5 6 7 6 6 7 6 7 7 7 8 8 8 8
3 3 4 5 9 9 6 4 5 4 4 4 5 4 1 5 4 3 3 2 3 3 3 3 2 3 3 4 4 5 6 6 6 6 6 7 7 7 7 7 8 8 8 8
5 3 4 6 4 4 7 8 8 5 6 5 4 6 1 3 3 2 1 2 3 3 3 2 2 3 4 5 5 5 6 6 6 6 6 7 8 7 7 8 8 8 8 8
5 5 3 3 2 3 5 7 8 5 3 6 7 7 2 1 1 1 2 4 4 4 4 3 3 3 4 5 5 5 6 6 6 6 6 7 7 7 7 8 8 8 8 9
5 5 8 9 3 4 5 7 8 8 7 8 12 12 10 7 6 6 6 6 5 5 4 3 3 4 4 5 5 6 6 6 6 6 6 7 7 7 8 7 7 8 9 9
3 6 8 11 11 7 8 11 13 15 14 12 13 16 15 11 9 9 7 7 6 5 5 4 4 4 5 5 5 6 6 6 6 6 7 8 7 7 7 7 7 8 9 10
5 5 5 9 11 12 13 14 16 17 17 19 19 21 14 12 11 10 8 7 7 7 5 5 5 5 5 5 6 6 6 6 6 7 7 8 7 7 7 7 8 9 9 9
5 5 4 7 8 8 13 15 17 15 15 14 20 19 11 11 10 8 7 6 6 6 5 6 5 5 5 5 6 6 6 7 7 7 8 8 7 7 8 9 9 9 9 9
6 6 4 4 4 12 9 6 12 15 16 15 13 11 9 8 7 6 4 3 4 5 6 6 5 5 5 5 6 6 6 6 7 8 8 8 7 8 8 8 9 9 9 9
10 7 5 4 7 9 7 6 6 8 11 8 9 9 7 6 6 5 2 3 3 4 5 5 5 5 6 6 6 7 7 7 7 8 8 8 8 9 9 9 9 9 9 10
8 7 6 6 6 7 4 1 1 2 7 3 4 6 5 3 4 5 4 5 5 5 5 5 5 6 6 6 6 7 7 7 8 8 8 8 8 9 9 9 9 9 8 9
5 6 10 10 9 7 4 0 1 4 5 2 2 3 3 3 4 5 6 6 6 6 7 6 7 6 6 6 6 7 8 8 8 8 8 9 8 8 9 8 8 8 9 9
8 6 7 7 8 8 2 2 4 3 2 3 4 4 4 5 6 6 6 7 7 7 7 7 6 7 6 6 6 8 9 8 7 8 9 9 9 8 8 8 8 8 8 8
7 7 5 7 6 2 1 2 2 2 2 3 4 4 5 6 7 7 7 6 6 7 7 6 7 8 7 6 6 8 9 8 8 8 9 9 9 8 8 8 8 8 7 6
5 4 4 5 6 5 4 3 3 3 4 4 4 5 5 6 7 8 7 7 7 7 7 7 7 8 8 7 7 7 8 7 8 9 9 9 9 9 8 7 7 6 6 6
5 3 5 7 7 6 4 3 4 5 5 5 5 5 6 6 8 8 7 7 7 7 6 6 7 8 8 8 7 7 7 7 8 9 9 9 8 8 8 7 7 7 6 7
5 5 6 7 5 4 4 4 6 6 5 5 6 7 6 6 7 7 7 7 7 7 6 7 7 8 8 8 7 7 6 7 8 8 8 7 7 7 7 7 8 9 9 12
Wind_Direction
187 225 219 212 215 265 319 305 293 296 195 258 265 274 274 266 249 241 236 222 204 193 165 147 156 160 161 165 185 224 243 267 277 269 275 270 265 274 279 266 270 275 278 276
196 231 236 247 244 256 269 278 282 294 33 303 279 279 275 257 241 232 228 220 199 169 158 148 159 165 177 181 192 239 244 258 267 252 246 242 246 247 248 253 254 254 261 265
221 163 181 218 231 248 255 259 279 302 328 272 272 287 254 202 180 171 201 196 187 175 164 158 172 176 174 179 203 275 275 273 267 256 250 259 263 263 260 262 253 246 249 252
240 223 210 225 232 233 264 307 304 311 316 294 303 297 270 212 188 184 195 194 183 155 151 159 167 171 186 201 199 252 266 268 264 261 253 252 256 258 259 253 251 250 244 244
226 184 197 226 232 226 254 24 314 287 275 284 242 244 274 210 201 192 181 174 159 148 154 166 176 193 208 202 208 233 256 261 260 258 255 252 255 254 256 261 260 256 249 239
251 219 206 228 272 246 105 295 266 250 260 263 223 214 274 226 193 164 154 150 145 149 163 173 182 197 220 220 225 243 258 262 261 256 256 252 254 258 263 266 261 257 253 245
221 214 189 187 180 173 186 176 299 244 223 247 200 210 251 296 82 124 146 151 148 149 159 172 196 216 235 244 253 254 261 266 266 264 260 256 250 251 252 257 259 259 258 256
213 209 182 184 191 172 197 197 190 231 253 289 197 232 247 161 112 104 113 134 140 156 175 194 217 241 252 257 260 267 269 272 271 268 267 260 251 245 248 252 255 255 252 251
218 213 144 172 191 175 180 213 257 286 293 279 249 244 221 152 137 142 152 170 186 212 223 233 244 260 274 282 278 277 279 281 277 270 270 268 256 247 250 256 257 257 255 255
257 220 165 147 178 249 260 193 150 180 226 255 256 237 233 160 169 174 185 199 221 237 253 271 278 278 282 287 289 292 282 278 276 270 272 279 269 257 253 257 260 258 257 256
223 201 166 162 197 194 188 204 195 203 226 231 263 255 54 130 150 177 193 204 244 264 274 276 271 278 291 302 299 292 289 284 282 276 276 277 274 265 260 258 259 260 258 257
200 197 224 215 202 217 203 199 182 190 224 219 250 265 349 108 116 132 211 264 269 265 273 281 287 296 300 298 295 295 290 283 283 281 282 280 276 267 263 261 261 265 264 261
170 177 209 218 212 219 231 224 215 216 226 222 231 255 240 75 32 297 277 282 286 283 289 294 293 297 300 298 296 297 294 286 289 291 288 286 282 270 266 266 265 268 270 268
165 194 212 219 211 173 213 223 216 209 224 239 236 253 270 282 287 291 295 295 293 291 292 295 296 295 295 296 301 304 306 304 297 293 290 287 284 278 271 269 268 267 270 269
172 227 237 254 266 251 231 225 220 222 226 236 252 257 265 277 285 289 293 297 300 303 303 299 297 299 302 307 309 312 308 307 306 300 292 287 282 281 282 277 273 270 270 272
191 234 251 255 250 253 254 239 231 232 236 243 257 264 267 274 281 284 291 302 303 303 308 308 310 309 304 306 310 311 308 306 305 299 292 290 290 289 289 287 284 278 275 273
192 204 228 254 253 267 255 237 233 234 230 233 246 255 268 273 277 287 296 297 303 311 320 320 313 305 306 311 314 307 304 305 302 294 292 296 298 295 293 293 291 285 280 276
198 202 224 255 252 243 246 222 226 236 242 238 247 260 263 269 282 287 287 313 339 342 332 327 321 317 314 312 312 304 299 298 296 295 297 300 302 302 299 297 293 289 286 281
206 201 221 227 245 265 264 245 230 236 250 241 252 267 279 292 300 291 329 4 335 328 322 315 315 313 310 308 308 306 299 295 295 297 300 303 304 302 299 295 292 293 291 290
205 200 223 231 241 243 250 228 261 245 260 254 255 274 285 307 292 287 338 345 334 328 322 316 313 307 303 301 303 301 296 293 295 298 299 299 299 297 296 293 292 292 290 290
199 211 224 238 247 257 272 267 103 220 259 356 335 310 314 274 260 296 328 329 325 322 317 315 310 301 296 301 305 297 294 291 293 298 301 300 299 297 295 293 291 293 294 295
204 208 213 219 237 250 210 152 194 245 1 9 351 342 324 304 307 312 312 310 315 315 312 314 312 304 302 301 300 296 292 294 298 301 300 302 301 301 303 300 296 292 293 295
212 209 214 213 229 269 186 234 270 330 322 330 331 330 323 309 305 306 305 307 309 309 310 312 307 303 302 302 299 296 298 306 308 305 302 302 302 300 301 300 299 299 298 297
247 236 244 260 266 279 277 290 315 322 317 321 319 315 312 303 302 305 306 305 306 305 307 309 306 303 304 307 304 301 307 311 306 303 303 304 303 303 303 303 301 302 301 300
259 269 260 264 278 292 276 294 312 315 310 308 307 307 302 300 298 298 300 301 301 304 305 304 301 300 301 305 302 304 310 313 305 302 303 305 305 302 302 301 298 295 292 292
253 252 250 258 275 273 287 320 322 310 308 315 312 306 303 298 296 300 300 300 301 302 302 301 300 300 301 304 302 307 311 310 308 306 305 304 304 304 303 306 308 305 301 306
Height
1471 1473 1471 1468 1468 1466 1465 1466 1465 1461 1460 1463 1463 1457 1451 1448 1448 1448 1449 1450 1452 1454 1457 1458 1459 1460 1461 1461 1462 1461 1461 1460 1459 1458 1457 1456 1456 1455 1455 1455 1455 1455 1455 1455
1470 1470 1465 1463 1464 1465 1466 1468 1465 1460 1458 1461 1460 1454 1445 1441 1441 1442 1444 1446 1448 1451 1453 1455 1456 1457 1458 1458 1458 1458 1458 1457 1456 1455 1453 1453 1452 1451 1451 1451 1451 1451 1451 1451
1465 1463 1461 1463 1464 1466 1465 1467 1465 1464 1462 1459 1460 1452 1439 1435 1437 1439 1441 1443 1445 1447 1450 1451 1453 1454 1455 1455 1455 1455 1454 1454 1453 1451 1450 1449 1448 1447 1447 1446 1446 1446 1446 1446
1460 1460 1462 1463 1463 1464 1467 1463 1463 1465 1470 1467 1461 1467 1442 1436 1437 1438 1439 1441 1443 1445 1447 1449 1450 1451 1452 1452 1452 1451 1451 1450 1449 1448 1446 1445 1444 1442 1442 1441 1441 1441 1441 1441
1457 1458 1461 1462 1461 1462 1464 1464 1465 1466 1469 1471 1462 1467 1447 1434 1436 1436 1437 1439 1440 1443 1445 1446 1448 1449 1449 1449 1448 1448 1447 1446 1444 1443 1442 1441 1440 1438 1437 1437 1436 1435 1435 1435
1457 1457 1459 1459 1460 1461 1463 1466 1465 1466 1470 1477 1459 1460 1448 1433 1429 1431 1434 1437 1439 1441 1443 1444 1445 1446 1446 1445 1445 1444 1442 1441 1440 1438 1437 1436 1435 1434 1432 1431 1430 1430 1429 1429
1457 1456 1457 1459 1462 1463 1465 1470 1474 1475 1477 1469 1446 1451 1444 1428 1426 1428 1432 1435 1437 1439 1440 1441 1442 1442 1442 1441 1440 1439 1437 1436 1435 1433 1432 1431 1430 1429 1427 1426 1425 1424 1423 1422
1454 1453 1453 1456 1457 1462 1464 1465 1472 1474 1465 1453 1447 1450 1436 1425 1425 1428 1431 1433 1436 1437 1438 1439 1439 1439 1438 1437 1436 1435 1433 1431 1430 1428 1427 1426 1425 1424 1423 1422 1420 1419 1417 1416
1449 1449 1448 1451 1453 1456 1460 1464 1460 1466 1465 1467 1452 1434 1425 1423 1425 1428 1430 1432 1434 1435 1436 1436 1436 1435 1434 1433 1432 1430 1428 1426 1425 1423 1422 1421 1419 1418 1417 1416 1415 1413 1412 1410
1444 1450 1449 1452 1455 1456 1456 1456 1465 1470 1472 1463 1445 1435 1432 1425 1426 1428 1429 1430 1432 1433 1433 1433 1433 1432 1431 1429 1428 1426 1424 1422 1420 1418 1417 1415 1414 1413 1411 1410 1408 1407 1405 1404
1444 1452 1452 1453 1454 1454 1458 1458 1459 1462 1461 1462 1453 1438 1419 1421 1423 1425 1427 1428 1429 1430 1430 1429 1429 1428 1427 1425 1423 1421 1419 1417 1415 1413 1411 1409 1408 1406 1405 1404 1402 1400 1399 1397
1443 1448 1451 1448 1445 1445 1448 1449 1454 1464 1463 1459 1457 1442 1417 1418 1420 1422 1425 1426 1427 1427 1427 1426 1425 1424 1423 1421 1419 1417 1415 1412 1410 1408 1406 1403 1402 1400 1399 1397 1395 1394 1392 1390
1442 1449 1452 1448 1451 1449 1448 1446 1447 1451 1454 1455 1454 1439 1418 1418 1420 1421 1423 1423 1423 1423 1422 1421 1420 1419 1418 1416 1414 1412 1409 1407 1405 1402 1400 1398 1395 1394 1392 1390 1389 1387 1385 1383
1440 1446 1445 1441 1436 1442 1447 1446 1446 1450 1453 1449 1439 1430 1422 1420 1420 1420 1420 1420 1420 1419 1418 1417 1416 1415 1414 1412 1410 1407 1404 1402 1400 1397 1394 1392 1390 1388 1386 1384 1382 1380 1378 1376
1440 1442 1439 1435 1432 1434 1437 1439 1440 1442 1440 1441 1429 1424 1419 1418 1418 1417 1416 1416 1415 1415 1415 1414 1412 1411 1409 1408 1405 1403 1400 1397 1395 1392 1390 1387 1385 1383 1380 1378 1375 1373 1371 1368
1438 1440 1437 1434 1430 1430 1430 1429 1430 1431 1431 1429 1426 1419 1414 1414 1414 1413 1412 1412 1411 1411 1410 1409 1408 1407 1405 1403 1401 1398 1396 1393 1391 1388 1385 1382 1380 1377 1374 1371 1369 1366 1363 1361
1436 1438 1438 1433 1427 1428 1427 1418 1419 1420 1418 1420 1418 1412 1410 1410 1410 1409 1409 1408 1408 1407 1406 1405 1404 1403 1401 1399 1397 1394 1392 1389 1387 1384 1381 1378 1375 1371 1368 1365 1362 1359 1356 1353
1433 1435 1436 1432 1431 1431 1412 1404 1405 1407 1406 1407 1406 1405 1405 1406 1405 1406 1405 1405 1404 1404 1403 1402 1400 1399 1397 1395 1393 1391 1388 1385 1382 1379 1377 1373 1370 1366 1363 1360 1356 1353 1350 1347
1425 1431 1431 1430 1428 1418 1406 1402 1402 1403 1402 1401 1401 1401 1401 1401 1401 1402 1402 1402 1402 1401 1400 1398 1397 1395 1393 1391 1389 1386 1384 1381 1378 1375 1372 1369 1365 1362 1358 1354 1351 1348 1345 1341
1421 1424 1429 1425 1424 1417 1403 1400 1398 1400 1403 1399 1398 1398 1398 1399 1403 1401 1399 1399 1398 1397 1396 1394 1393 1391 1389 1387 1384 1382 1379 1376 1374 1371 1368 1364 1361 1357 1353 1349 1346 1343 1340 1335
1421 1422 1423 1421 1418 1409 1400 1398 1398 1407 1404 1398 1396 1397 1397 1398 1400 1398 1397 1395 1394 1393 1392 1390 1388 1386 1384 1382 1380 1377 1374 1372 1369 1366 1363 1359 1356 1352 1348 1345 1341 1338 1334 1331
1415 1416 1417 1416 1415 1409 1398 1398 1401 1401 1397 1396 1396 1396 1396 1396 1395 1394 1393 1392 1390 1389 1387 1386 1384 1381 1379 1377 1375 1372 1369 1367 1364 1361 1357 1354 1350 1347 1344 1340 1336 1333 1330 1326
1405 1405 1405 1405 1403 1396 1395 1396 1396 1396 1396 1396 1395 1395 1394 1393 1392 1391 1389 1388 1386 1385 1383 1381 1379 1376 1374 1372 1370 1367 1364 1362 1359 1355 1352 1349 1345 1342 1339 1336 1332 1329 1326 1323
1399 1397 1399 1399 1395 1394 1394 1394 1394 1394 1394 1394 1393 1392 1391 1390 1388 1387 1385 1384 1382 1380 1378 1376 1374 1371 1369 1367 1365 1363 1360 1357 1354 1350 1347 1344 1341 1337 1334 1331 1328 1325 1322 1319
1397 1397 1397 1396 1393 1392 1392 1392 1392 1392 1391 1391 1390 1389 1388 1387 1385 1383 1381 1380 1378 1376 1374 1371 1369 1367 1364 1362 1360 1358 1355 1352 1349 1345 1342 1339 1336 1333 1330 1327 1325 1322 1319 1318
1394 1395 1396 1394 1392 1392 1391 1391 1390 1389 1388 1387 1386 1385 1384 1384 1381 1379 1377 1375 1373 1371 1369 1367 1364 1362 1359 1357 1355 1353 1350 1348 1344 1341 1338 1335 1332 1329 1327 1323 1320 1318 1317 1314